Regional Weather Roundup
Issued by NWS Cleveland, OH

Home | Current Version | Previous Version | Graphics & Text | Print | Product List | Glossary Off
Versions: 1 2 3 4 5 6 7 8 9 10 11 12 13 14 15 16 17 18 19 20 21 22 23 24 25 26 27 28 29 30 31 32 33 34 35 36 37 38 39 40 41 42 43 44 45 46 47 48 49 50

000
ASUS41 KCLE 301010
RWRCLE
OHIO REGIONAL WEATHER ROUNDUP
NATIONAL WEATHER SERVICE WILMINGTON, OH
600 AM EDT SUN AUG 30 2015

NOTE: "FAIR" INDICATES FEW OR NO CLOUDS BELOW 12,000 FEET WITH NO
SIGNIFICANT WEATHER AND/OR OBSTRUCTIONS TO VISIBILITY.

OHZ001>008-015>018-024>027-034-035-043-044-301100-
   NORTHWEST OHIO

CITY           SKY/WX    TMP DP  RH WIND       PRES   REMARKS
DEFIANCE       CLOUDY    69  66  90 CALM      30.05R FOG
FINDLAY        CLOUDY    68  65  90 S6        30.05R
TOLEDO EXPRESS CLOUDY    67  67 100 CALM      30.04R FOG
TOLEDO EXEC    CLOUDY    69  66  90 SE5       30.06R FOG
LIMA           CLOUDY    67  66  97 S6        30.06R
$$

OHZ009>014-019>023-028>033-038-089-301100-
   NORTHEAST OHIO

CITY           SKY/WX    TMP DP  RH WIND       PRES   REMARKS
CLE-HOPKINS    CLOUDY    67  65  93 S8        30.09S
CLE-LAKEFRONT  CLOUDY    69  65  86 S9        30.06R
CUY CO. ARPT   NOT AVBL
LORAIN-ELYRIA  CLOUDY    67  65  93 S8        30.07S
ASHTABULA      CLOUDY    66  65  96 S5        30.09R FOG
AKRON-CANTON   LGT RAIN  68  65  90 S5        30.10F FOG
WOOSTER        CLOUDY    65  65 100 S5        30.10F FOG
MANSFIELD      CLOUDY    67  66  97 SE6       30.09R
YOUNGSTOWN     LGT RAIN  66  65  96 S3        30.11R FOG
$$

OHZ042-051>053-060>062-070>072-077>081-301100-
  SOUTHWEST OHIO

CITY           SKY/WX    TMP DP  RH WIND       PRES   REMARKS
CINC-COVINGTON PTCLDY    67  65  93 CALM      30.09R
CINC-LUNKEN    FOG       65  65 100 CALM      30.09R VSB 1/4
HAMILTON       PTCLDY    68  66  93 CALM      30.09R
DAYTON         CLOUDY    67  67 100 SE8       30.08S THUNDER
WRIGHT-PAT AFB LGT RAIN  68  67  98 SE5       30.08S
DAYTON GENERAL MOCLDY    67  64  90 S3        30.08F
WILMINGTON     CLOUDY    65  63  93 SE5       30.10R
$$

OHZ036-037-039>041-045>050-054>059-063>069-073>076-082>088-301100-
  CENTRAL AND SOUTHEAST OHIO

CITY           SKY/WX    TMP DP  RH WIND       PRES   REMARKS
COLUMBUS       MOCLDY    67  65  93 S3        30.08R
OSU AIRPORT    CLOUDY    68  65  90 S3        30.09R
BOLTON FIELD   CLOUDY    65  65  99 S3        30.09S
RICKENBACK AFB MOCLDY    66  65  97 CALM      30.08S FOG
NEWARK         FOG       65  63  93 CALM      30.09R VSB 3/4
MARION         CLOUDY    67  64  90 S5        30.08S
LANCASTER      PTCLDY    68  65  90 S3        30.09S
ZANESVILLE     MOCLDY    66  64  93 SE3       30.09F FOG
NEW PHILLY     CLOUDY    67  66  97 SE5       30.11S FOG
$$



USA.gov is the U.S. government's official web portal to all federal, state and local government web resources and services.